Riverside March, CA

11:01 AM PDT on May 26, 2018 (GMT -0700)
March Air Reserve Base

Weather History for KRIV - January, 2013

Change the Weather History Date:

Tuesday, January 22, 2013

  Actual Average Record
Temperature  
Mean Temperature 53 °F -  
Max Temperature 77 °F 63 °F 77 °F (2013)
Min Temperature 29 °F 40 °F 29 °F (2013)
Degree Days  
Heating Degree Days 12    
Growing Degree Days 3 (Base 50)    
Moisture  
Dew Point 19 °F    
Average Humidity 36    
Maximum Humidity 62    
Minimum Humidity 8    
Precipitation  
Precipitation 0.00 in - - ()
Sea Level Pressure  
Sea Level Pressure 30.10 in    
Wind  
Wind Speed 2 mph (NE)    
Max Wind Speed 8 mph    
Max Gust Speed -    
Visibility 10 miles    
Events      
Averages and records for this station are not official NWS values.
T = Trace of Precipitation, MM = Missing Value Source: NWS Daily Summary

Daily Weather History Graph

Daily Weather History Graph

Search for Another Location

Airport or City:

Astronomy

Jan. 22, 2013 Rise Set
Actual Time 6:51 AM PST 5:10 PM PST
Civil Twilight 6:24 AM PST 5:37 PM PST
Nautical Twilight 5:54 AM PST 6:07 PM PST
Astronomical Twilight 5:24 AM PST 6:37 PM PST
Moon 1:38 PM PST (1/22) 3:15 AM PST (1/22)
Length of Visible Light 11h 12m
Length of Day
10h 18m
Waxing Gibbous, 83% of the Moon is Illuminated
Jan 22
Waxing Gibbous
Jan 26
Full
Feb 3
Last Quarter
Feb 9
New
Feb 17
First Quarter

Hourly Weather History & Observations

Time (PST) Temp. Windchill Dew Point Humidity Pressure Visibility Wind Dir Wind Speed Gust Speed Precip Events Conditions
12:58 AM 33.4 °F - 17.8 °F 53% 30.11 in 10.0 mi Calm Calm - N/A   Clear
1:58 AM 31.8 °F - 19.2 °F 60% 30.11 in 10.0 mi NW 1.2 mph - N/A   Clear
2:58 AM 32.9 °F - 18.7 °F 56% 30.10 in 10.0 mi Variable 1.2 mph - N/A   Scattered Clouds
3:58 AM 31.5 °F - 18.5 °F 59% 30.10 in 10.0 mi Calm Calm - N/A   Mostly Cloudy
4:58 AM 34.3 °F - 16.0 °F 47% 30.11 in 10.0 mi Calm Calm - N/A   Scattered Clouds
5:58 AM 29.3 °F 25.6 °F 17.2 °F 61% 30.14 in 10.0 mi South 3.5 mph - N/A   Partly Cloudy
6:58 AM 29.1 °F - 17.6 °F 62% 30.14 in 10.0 mi SW 2.3 mph - N/A   Mostly Cloudy
7:58 AM 39.0 °F - 20.8 °F 48% 30.14 in 10.0 mi Calm Calm - N/A   Mostly Cloudy
8:58 AM 49.8 °F - 23.2 °F 35% 30.14 in 10.0 mi ESE 1.2 mph - N/A   Clear
9:58 AM 61.7 °F - 21.9 °F 22% 30.14 in 10.0 mi Calm Calm - N/A   Clear
10:58 AM 68.2 °F - 16.9 °F 14% 30.12 in 10.0 mi Calm Calm - N/A   Mostly Cloudy
11:58 AM 72.9 °F - 17.4 °F 12% 30.09 in 10.0 mi Calm Calm - N/A   Clear
12:58 PM 77.7 °F - 12.2 °F 8% 30.04 in 10.0 mi Variable 4.6 mph - N/A   Clear
1:58 PM 77.2 °F - 10.8 °F 8% 30.04 in 10.0 mi NE 4.6 mph - N/A   Clear
2:58 PM 76.5 °F - 14.0 °F 9% 30.05 in 10.0 mi East 5.8 mph - N/A   Clear
3:58 PM 72.5 °F - 19.6 °F 14% 30.05 in 10.0 mi NNE 5.8 mph - N/A   Clear
4:58 PM 66.9 °F - 19.9 °F 17% 30.06 in 10.0 mi ENE 5.8 mph - N/A   Clear
5:58 PM 58.3 °F - 21.2 °F 24% 30.08 in 10.0 mi WNW 4.6 mph - N/A   Clear
6:58 PM 61.9 °F - 19.0 °F 19% 30.10 in 10.0 mi ESE 8.1 mph - N/A   Clear
7:58 PM 50.5 °F - 23.9 °F 35% 30.11 in 10.0 mi West 4.6 mph - N/A   Clear
8:58 PM 45.7 °F - 23.9 °F 42% 30.12 in 10.0 mi Calm Calm - N/A   Clear
9:58 PM 45.1 °F - 23.4 °F 42% 30.11 in 10.0 mi Calm Calm - N/A   Clear
10:58 PM 43.3 °F - 25.5 °F 49% 30.12 in 10.0 mi Calm Calm - N/A   Mostly Cloudy
11:58 PM 40.5 °F 38.4 °F 27.3 °F 59% 30.10 in 10.0 mi North 3.5 mph - N/A   Mostly Cloudy